Miscellaneous Local Product
Issued by NWS Hastings, NE

Home | Current Version | Previous Version | Graphics & Text | Print | Product List | Glossary On
Versions: 1 2 3 4 5 6 7 8 9 10 11 12 13 14 15 16 17 18 19 20 21 22 23 24 25 26 27 28 29 30 31 32 33 34 35 36 37 38 39 40 41 42 43 44 45 46 47 48 49 50
164
AXUS43 KGID 110002
MISGRI

GID CWA HOURLY WEATHER ROUNDUP
NATIONAL WEATHER SERVICE HASTINGS NE
600 PM CST WED FEB 10 2016

NOTE: "FAIR" INDICATES FEW OR NO CLOUDS BELOW 12,000 FEET WITH NO
SIGNIFICANT WEATHER AND/OR OBSTRUCTIONS TO VISIBILITY.

...SOUTH CENTRAL NEBRASKA...

CITY           SKY/WX    TMP DP  RH WIND       PRES   REMARKS
GRAND ISLAND   CLEAR     40  31  70 SW9       29.92R WCI  34
HASTINGS       CLEAR     43  31  62 W8        29.91R
KEARNEY        CLOUDY    43  32  65 W8        29.93R
ORD            CLEAR     43  31  62 N9        29.94R
YORK           CLEAR     37  32  81 E7        29.92R WCI  32
AURORA         CLEAR     42  32  69 NE7       29.91R
LEXINGTON      CLOUDY    45  32  61 W8        29.93R
HOLDREGE       CLEAR     46  31  57 W8        29.92R
HEBRON         CLEAR     41  33  73 CALM      29.93R

...NEBRASKA PANHANDLE...

CITY           SKY/WX    TMP DP  RH WIND       PRES   REMARKS
CHADRON        PTCLDY    54  27  35 N13       30.01R
ALLIANCE       CLOUDY    40  31  70 W14       30.00R WCI  32
SCOTTSBLUFF    CLOUDY    52  27  38 NW12      30.06R
SIDNEY         CLOUDY    43  29  57 NW14      30.05R

...WESTERN AND NORTH CENTRAL NEBRASKA...

CITY           SKY/WX    TMP DP  RH WIND       PRES   REMARKS
VALENTINE      CLEAR     45  31  58 N12       29.98R
AINSWORTH      CLOUDY    42  31  65 N10       29.97R
ONEILL         CLOUDY    35  28  76 NE8       29.97R WCI  29
BROKEN BOW     CLEAR     50  27  40 N14       29.93R
IMPERIAL       CLOUDY    46  29  51 W12       29.99S
NORTH PLATTE   CLEAR     43  32  65 N6        29.96R
MCCOOK         CLEAR     49  30  48 NW12G18   29.96S

...EASTERN NEBRASKA...

CITY           SKY/WX    TMP DP  RH WIND       PRES   REMARKS
NORFOLK        CLOUDY    31  24  75 NE7       29.98R WCI  24
SO SIOUX CITY  CLOUDY    22  15  75 E13       30.07R WCI  10
TEKAMAH        MOCLDY    26  21  81 E12       30.02R WCI  16
COLUMBUS       CLEAR     30  19  64 E6        29.98R WCI  24
ALBION         CLEAR     35  29  78 NE10      29.94R WCI  27
OMAHA EPPLEY   PTCLDY    32  24  72 NE14      30.00R WCI  22
OFFUTT AFB     CLEAR     34  26  71 NE9       29.98R WCI  27
MILLARD        CLEAR     38  24  57 CALM      29.97R
LINCOLN        CLEAR     34  27  75 NE6       29.97R WCI  29
NEBRASKA CITY  CLEAR     39  25  57 NE5       29.95R
BEATRICE       CLEAR     39  31  72 NE8       29.94R WCI  33
FALLS CITY     CLEAR     42  24  49 NE8       29.94R

...NORTHERN KANSAS...

CITY           SKY/WX    TMP DP  RH WIND       PRES   REMARKS
GOODLAND       CLEAR     51  31  46 NW8       30.04R
HILL CITY      CLOUDY    50  31  48 NW14      29.97R
NORTON         CLEAR     43  27  52 W10       29.96R
PHILLIPSBURG   CLEAR     48  30  49 W8        29.95R
SMITH CENTER   CLEAR     43  32  65 W6        29.94R
BELOIT         CLEAR     52  34  50 W5        29.92R
HAYS           CLEAR     57  28  33 NW9       29.97R
RUSSELL        CLEAR     54  31  41 NW12      29.94R
CONCORDIA      CLEAR     48  30  49 W5        29.92R
SALINA         CLEAR     57  30  35 W14       29.92R
TOPEKA         CLEAR     50  27  40 N5        29.91R



USA.gov is the U.S. government's official web portal to all federal, state and local government web resources and services.